Regional Weather Roundup
Issued by NWS Sioux Falls, SD

Home | Current Version | Previous Version | Graphics & Text | Print | Product List | Glossary On
Versions: 1 2 3 4 5 6 7 8 9 10 11 12 13 14 15 16 17 18 19 20 21 22 23 24 25 26 27 28 29 30 31 32 33 34 35 36 37 38 39 40 41 42 43 44 45 46 47 48 49 50
000
ASUS43 KFSD 250402
RWRFSD

WEATHER ROUNDUP FOR SE SOUTH DAKOTA/SW MINNESOTA/NW IOWA
NATIONAL WEATHER SERVICE SIOUX FALLS SD
1100 PM CDT FRI OCT 24 2014

NOTE: "FAIR" INDICATES FEW OR NO CLOUDS BELOW 12,000 FEET WITH NO
SIGNIFICANT WEATHER AND OR OBSTRUCTIONS TO VISIBILITY.


SDZ038>040-050-052>070-250500-
SOUTHEAST SOUTH DAKOTA

CITY           SKY/WX    TMP DP  RH WIND       PRES   REMARKS
CHAMBERLAIN    CLEAR     46  35  65 CALM      30.03R
HURON          MOCLDY    54  41  61 N7        30.01R
MADISON        FAIR      50  39  66 NW8       30.00R
MITCHELL       CLEAR     51  39  63 NW6       30.02R
SIOUX FALLS    CLEAR     53  42  66 W3        29.99R
WINNER         FAIR      57  31  37 NW7       30.04R
YANKTON        CLEAR     54  43  66 W6        30.01R
$$

MNZ071-072-080-081-089-090-097-098-250500-
SOUTHWEST MINNESOTA

CITY           SKY/WX    TMP DP  RH WIND       PRES   REMARKS
FAIRMONT       CLEAR     54   7  15 W7        29.93S
JACKSON        PTCLDY    54  39  58 W5        29.96R
LUVERNE        CLEAR     50  41  71 CALM      29.99R
MARSHALL       CLEAR     55  37  50 NW15      29.95R
MONTEVIDEO     CLEAR     59  43  55 NW6       29.95R
PIPESTONE      CLEAR     52  41  66 NW7       29.99R
REDWOOD FALLS  CLEAR     58  41  53 NW10      29.93R
TRACY          CLEAR     63  40  43 W8        29.96R
WINDOM         FAIR      50  39  66 W5        29.96R
WORTHINGTON    CLEAR     54  39  58 W9        29.98R
$$

IAZ001>003-012>014-020>022-031-032-NEZ013-014-SDZ071-250500-
NORTHWEST IOWA

CITY           SKY/WX    TMP DP  RH WIND       PRES   REMARKS
CHEROKEE       CLEAR     48  48  99 CALM      29.99R
DENISON        CLEAR     48  48 100 CALM      29.98R
ESTHERVILLE    PTCLDY    50  38  63 SW7       29.95R
LE MARS        CLEAR     46  45  93 CALM      29.99S
ORANGE CITY    CLEAR     57  41  54 CALM      29.98S
SHELDON        CLEAR     48  45  87 W3        29.97S
SIOUX CITY     CLEAR     48  45  89 NW3       30.00R
SPENCER        CLEAR     47  43  86 SW3       29.97S
STORM LAKE     CLEAR     55  45  67 W9        30.00R
$$

ABBREVIATIONS USED IN REMARKS
   TC - TEMPERATURE IN CELSIUS
  WCI - WIND CHILL INDEX
   HX - HEAT INDEX
  VSB - VISIBILITY




USA.gov is the U.S. government's official web portal to all federal, state and local government web resources and services.